Location: Martley
(52.2333°N, 2.3667°W)
Time: 05:31:54
(UTC+00:00)

Radarsat Rocket - Pass Details

Date: 11 December 2019
Orbit: 933 x 1492 km, 100.6° (Epoch: 26 January)

Event Time Altitude Azimuth Distance (km) Brightness Sun altitude
Rises 06:50:17 0° 17° (NNE) 3,655 6.9 -11.1°
Reaches altitude 10° 06:52:38 10° 15° (NNE) 2,740 6.3 -10.7°
Maximum altitude 06:58:42 71° 293° (WNW) 1,103 4.1 -9.9°
Drops below altitude 10° 07:05:26 10° 211° (SSW) 3,031 6.5 -9.0°
Sets 07:08:10 0° 209° (SSW) 4,068 7.2 -8.6°
